Velovelo
Português Nederlands 日本語 中文
Español English čeština slovenčina
русский italiano polski norsk
français Deutsch svenska عربي
 
 vorige pagina
 Stuur naar een vriend
 Print dit artikel
 ---> La Roannaise 2009 : Résultats du 90 km

Class Nom Prénom ... Cat. Temps........Moy.......Dip......
1 GADET FABIEN C 2:24:25 37.39 OR
2 DUPERRON JEREMIE C 2:24:32 37.36 OR
3 JOLIVET FLORIAN C 2:24:34 37.35 OR
4 VANRHYN LUDWIG C 2:26:00 36.99 OR
5 DEBLANGEY ARNAUD E 2:26:03 36.97 OR
6 DEBORDE AYMERIC C 2:26:03 36.97 OR
7 BEE LAURENT D 2:26:03 36.97 OR
8 VIAL PASCAL F 2:26:03 36.97 OR
9 VALLADE LAURENT D 2:26:42 36.81 OR
10 CHAPON BRUNO E 2:26:42 36.81 OR
11 CHEVIGNON NICOLAS D 2:26:56 36.75 OR
12 RATTO JEAN YVES F 2:26:56 36.75 OR
13 MESSNER PATRICK F 2:26:56 36.75 OR
14 FONDARD GUILLAUME D 2:26:56 36.75 OR
15 JOURDAN PHILIPPE C 2:26:56 36.75 OR
16 GILBERT LUC F 2:26:56 36.75 OR
17 BAYON FABRICE D 2:26:56 36.75 OR
18 JOURNAIX ERIC E 2:26:56 36.75 OR
19 RULIERE FREDERIC D 2:26:56 36.75 OR
20 MATHELIN ULYSSE C 2:26:56 36.75 OR
21 CHARTRE GILLES E 2:26:56 36.75 OR
22 PRAS LIONEL D 2:26:56 36.75 OR
23 DELEEGHER JEAN LUC F 2:26:56 36.75 OR
24 LEJEUNE GUILLAUME D 2:26:56 36.75 OR
25 MONTOLIEU DIDIER E 2:26:56 36.75 OR
26 KAIDI BOUZID E 2:28:30 36.36 OR
27 DURET JEROME D 2:31:18 35.69 OR
28 CHAZELLE CHRISTIAN E 2:31:18 35.69 OR
29 MERLE FRANCK E 2:31:18 35.69 OR
30 DUPERRON BRUNO E 2:31:18 35.69 OR
31 DENONFOUX BERNARD E 2:31:18 35.69 OR
32 BRUYERE JACQUES E 2:31:18 35.69 OR
33 VERNUSSE CYRILLE D 2:31:18 35.69 OR
34 GOUBY LAURENT E 2:31:18 35.69 OR
35 THIEL CHRISTIAN F 2:31:35 35.62 OR
36 GIRAUDIER FRANCOIS D 2:31:35 35.62 OR
37 PORTEFAIX ALAIN D 2:32:51 35.33 OR
38 BRZEZICKI FRANCK D 2:32:51 35.33 OR
39 CHAMPROMIS ARNAUD D 2:32:51 35.33 OR
40 FOURNEL MICHEL E 2:32:51 35.33 OR
41 MATHELIN LAURENT C 2:33:08 35.26 OR
42 NALIATO ROCKY E 2:33:59 35.07 OR
43 DUPERRON PHILIPPE E 2:40:10 33.71 OR
44 DURAND THIERRY E 2:40:10 33.71 OR
45 DELVAL CHRISTOPHE D 2:40:10 33.71 OR
46 VAGNON ERIC E 2:40:10 33.71 OR
47 CHALAT GUILLAUME C 2:40:10 33.71 OR
48 CHANEL CHRISTIAN E 2:40:10 33.71 OR
49 RUBERTI FREDERIC D 2:40:10 33.71 OR
50 DUCROS LOœC C 2:42:43 33.19 OR
51 VILLA PASCAL E 2:42:43 33.19 OR
52 GONDARD BERNARD E 2:42:43 33.19 OR
53 PERRIN MICHEL F 2:42:43 33.19 OR
54 AUVOLAT DOMINIQUE E 2:42:43 33.19 OR
55 BARTHOLET JEAN MARC F 2:42:43 33.19 OR
56 BERTHIER ERIC E 2:43:28 33.03 OR
57 FLORENCE THIERRY E 2:43:28 33.03 OR
58 GENESTE NOEL G 2:44:17 32.87 OR
59 WITTLING DAVID E 2:44:17 32.87 OR
60 THEVENET ALAIN E 2:44:17 32.87 OR
61 DOUSSON DANIEL G 2:44:17 32.87 OR
62 MOREL ALAIN E 2:44:17 32.87 OR
63 RUBERTI CHRISTIAN F 2:46:11 32.49 OR
64 DADOLLE YVES F 2:46:11 32.49 OR
65 BAFFELEUF LUCIEN G 2:46:11 32.49 OR
66 FAURE JEAN LOUIS F 2:46:11 32.49 OR
67 JOURDAN HENRI G 2:46:11 32.49 OR
68 PLANCHE ERIK E 2:46:11 32.49 OR
69 BRUEL SYLVAIN E 2:48:31 32.04 OR
70 PAVAILLER NOEL E 2:48:31 32.04 OR
71 GIRAUDIER BRENDAN C 2:49:30 31.86 OR
72 JOURDAN JEAN JACQUES F 2:49:30 31.86 OR
73 SAUTET GILLES F 2:49:30 31.86 OR
74 JOUX MICKAEL D 2:49:30 31.86 OR
75 GELIN DENIS E 2:50:05 31.75 OR
76 FOUREL ROLAND G 2:50:05 31.75 OR
77 FOURNIER MARC E 2:50:05 31.75 OR
78 KLIMENKO CHRISTIAN E 2:50:05 31.75 OR
79 JOLLY JEAN PIERRE G 2:50:18 31.71 OR
80 BELLON BRUNO D 2:50:45 31.63 OR
81 RAVE ALAIN E 2:50:45 31.63 OR
82 YVARS CELINE A 2:50:45 31.63 OR
83 CARRE BERNARD F 2:50:45 31.63 OR
84 PHILIPPON PIERRE LUC C 2:50:45 31.63 OR
85 YVARS GUILLAUME D 2:50:45 31.63 OR
86 CHERPIN CHRISTOPHE E 2:50:45 31.63 OR
87 DRAIN ANDRE F 2:51:06 31.56 OR
88 ZANARDO HERVE D 2:52:10 31.36 OR
89 GROULARD GAETAN C 2:52:10 31.36 OR
90 CHAPUY CHRISTIAN D 2:52:10 31.36 OR
91 WILLE XAVIER G 2:53:40 31.09 OR
92 CHEVALARD HERVE D 2:54:18 30.98 OR
93 THEVENET JEREMY C 2:55:57 30.69 OR
94 DESORMIERE ANTHONY C 2:55:57 30.69 OR
95 LALLEMAND MARC C 2:56:52 30.53 OR
96 MALHOMME ROBERT F 2:56:52 30.53 OR
97 BRUN EDWIGE A 2:57:38 30.40 OR
98 BRUN CHRISTIAN E 2:57:38 30.40 OR
99 NICOLAS MICHEL F 2:57:38 30.40 OR
100 SALQUE OLIVIER D 2:57:38 30.40 OR
101 VILLARD FRANCK G 2:57:48 30.37 OR
102 GAZZOLA JEAN PIERRE F 2:57:48 30.37 OR
103 TIXIER RAYMOND G 2:57:48 30.37 OR
104 LOISY ROBERT F 2:57:48 30.37 OR
105 JOURDAN ROBERT G 3:00:33 29.91 OR
106 JOLIVET MAURICE E 3:00:33 29.91 OR
107 CORNET GILLES D 3:00:33 29.91 OR
108 GUILLIEN CYRIL E 3:00:33 29.91 OR
109 BOYER GREGORY C 3:01:06 29.82 OR
110 MONCORGER GILLES D 3:03:26 29.44 OR
111 PERRIN BERNARD G 3:05:22 29.13 OR
112 DUCROS GERARD E 3:05:59 29.03 OR
113 CHARNET LUDOVIC D 3:05:59 29.03 OR
114 GIRAUD JEAN PAUL F 3:05:59 29.03 OR
115 DUMAS SEBASTIEN C 3:05:59 29.03 OR
116 BOEUF ANDRE G 3:05:59 29.03 OR
117 BOURDELLE FRANCOIS E 3:06:48 28.91 OR
118 SALINAS JORDAN C 3:06:48 28.91 OR
119 NOILLY FABRICE D 3:06:48 28.91 OR
120 MONNET GERARD F 3:06:48 28.91 OR
121 SALINAS DENIS E 3:06:48 28.91 OR
122 PIEROPAN MICKAEL D 3:06:48 28.91 OR
123 NOILLY ANTHONY C 3:07:21 28.82 OR
124 ROUX CYRILLE D 3:07:31 28.80 OR
125 BOREL ERIC D 3:09:30 28.50 OR
126 GUILLOT BRUNO E 3:09:30 28.50 OR
127 LEFEBVRE GUILLAUME D 3:09:30 28.50 OR
128 STELLA CHANTAL B 3:12:59 27.98 OR
129 DUCHEMIN JEAN MARCEL G 3:12:59 27.98 OR
130 ROSE DENIS E 3:15:16 27.65 OR
131 MARGOTAT DAVID D 3:15:16 27.65 OR
132 MERMET PATRICIA AB 3:15:54 27.57 OR
133 SEVE RENE G 3:17:21 27.36 OR
134 DALIGAND CHRISTOPHE E 3:17:57 27.28 OR
135 MILLAUD ALAIN E 3:18:36 27.19 OR
136 BOIRE CHRISTIANE B 3:18:36 27.19 OR
137 FAMBRINI PAUL G 3:18:36 27.19 OR
138 GOUJON DANIEL G 3:18:36 27.19 OR
139 LEGER FRANCK E 3:18:36 27.19 OR
140 ARLOT PATRICK E 3:18:36 27.19 OR
141 BOYER MICKAEL C 3:19:56 27.01 OR
142 PAZZOTTU REMY D 3:21:15 26.83 OR
143 GALAND DIDIER E 3:22:26 26.68 OR
144 LOISY JEAN PIERRE F 3:23:28 26.54 OR
145 BUTTY DOMINIQUE F 3:23:28 26.54 OR
146 STELLA GILLES F 3:23:28 26.54 OR
147 DUPUY THIERRY E 3:23:28 26.54 OR
148 ROCH ROMAIN C 3:23:28 26.54 OR
149 DARMEZIN PASCAL E 3:24:29 26.41 OR
150 BLANCHARD SERGE D 3:24:29 26.41 OR
151 NEYRET PATRICK E 3:24:29 26.41 OR
152 CHARLAT FABRICE D 3:28:37 25.88 OR
153 PAOLETTI ROGER G 3:28:37 25.88 OR
154 CUQ PIERRE F 3:29:00 25.84 OR
155 GRANGER PHILIPPE E 3:29:00 25.84 OR
156 CANTO RAMON G 3:29:00 25.84 OR
157 NEEL CHRISTIAN E 3:30:19 25.68 OR
158 DADOLLE MARCELLE B 3:32:05 25.46 OR
159 DUMAS JEAN PAUL F 3:34:16 25.20 OR
160 BARRAUD MAURICE G 3:34:16 25.20 OR
161 LOISY SYLVAIN D 3:35:24 25.07 OR
162 VAIZAND JEAN FRANCOIS F 3:35:30 25.06 OR
163 MATHEVET CLAUDE F 3:37:36 24.82 OR
164 GENESTE REGINE B 3:37:36 24.82 OR
165 JANDEAU JEAN JACQUES G 3:42:19 24.29 OR
166 MARCHAIS MICHEL E 3:42:19 24.29 OR
167 MARCHAIX XAVIER C 3:42:19 24.29 OR
168 DESORMIERE NICOLAS C 3:49:57 23.48 OR
169 ATTALI ALAIN F 4:12:27 21.39 OR

Haut 









Haut  
 Privé-site   Auteursrecht-Copyright : klik hier om te lezen !